N81HU -KASE

Flight info

Callsign N81HU
Flight time N/A
Altitude VFR
Route
Aircraft C421/L-DOV/C

Departure

Time N/A
Airport -

Arrival

Time 2026-04-22 00:15
Airport Aspen-Pitkin County Airport (Sardy Field) (KASE)
Time Latitude Longitude Altitude Speed Heading
2026-04-22 00:07 39.10857 -106.56622 13297 ft 162 kts 276°
2026-04-22 00:07 39.10970 -106.58015 13397 ft 156 kts 272°
2026-04-22 00:07 39.11197 -106.59393 13350 ft 158 kts 284°
2026-04-22 00:07 39.11624 -106.60699 13409 ft 159 kts 290°
2026-04-22 00:08 39.12099 -106.62021 13255 ft 168 kts 289°
2026-04-22 00:08 39.12586 -106.63415 13120 ft 170 kts 290°
2026-04-22 00:08 39.12978 -106.64782 13132 ft 162 kts 276°
2026-04-22 00:08 39.12796 -106.66185 13126 ft 157 kts 244°
2026-04-22 00:09 39.12282 -106.67381 13260 ft 149 kts 238°
2026-04-22 00:09 39.11768 -106.68559 13117 ft 155 kts 240°
2026-04-22 00:09 39.11199 -106.69793 12979 ft 162 kts 239°
2026-04-22 00:09 39.10817 -106.71152 12833 ft 165 kts 259°
2026-04-22 00:10 39.10846 -106.72635 12646 ft 174 kts 276°
2026-04-22 00:10 39.11197 -106.74168 12394 ft 177 kts 295°
2026-04-22 00:10 39.12008 -106.75359 12067 ft 185 kts 319°
2026-04-22 00:10 39.13098 -106.76275 11712 ft 187 kts 325°
2026-04-22 00:11 39.14187 -106.77182 11422 ft 185 kts 321°
2026-04-22 00:11 39.15345 -106.77914 11140 ft 189 kts 340°
2026-04-22 00:11 39.16602 -106.78402 10791 ft 188 kts 328°
2026-04-22 00:11 39.17531 -106.79589 10509 ft 188 kts 301°
2026-04-22 00:12 39.18194 -106.80987 10322 ft 182 kts 295°
2026-04-22 00:12 39.18774 -106.82409 10040 ft 178 kts 294°
2026-04-22 00:12 39.19529 -106.83624 9830 ft 174 kts 318°
2026-04-22 00:12 39.20547 -106.84406 9684 ft 167 kts 327°
2026-04-22 00:13 39.21660 -106.84857 9563 ft 169 kts 346°
2026-04-22 00:13 39.22821 -106.85061 9533 ft 166 kts 349°
2026-04-22 00:13 39.23920 -106.85251 9335 ft 150 kts 347°
2026-04-22 00:13 39.24893 -106.85484 9172 ft 138 kts 330°
2026-04-22 00:14 39.25430 -106.86330 9012 ft 113 kts 273°
2026-04-22 00:14 39.25126 -106.87230 8508 ft 116 kts 222°
2026-04-22 00:14 39.24450 -106.87687 7955 ft 102 kts 192°
2026-04-22 00:14 39.23809 -106.87587 7686 ft 97 kts 171°
2026-04-22 00:15 39.23171 -106.87293 7714 ft 92 kts 160°
2026-04-22 00:15 39.22677 -106.87058 7727 ft 53 kts 158°
2026-04-22 00:15 39.22430 -106.86938 7741 ft 27 kts 161°
2026-04-22 00:15 39.22334 -106.86871 7746 ft 12 kts 114°
2026-04-22 00:16 39.22333 -106.86788 7747 ft 7 kts 109°
2026-04-22 00:16 39.22283 -106.86750 7751 ft 14 kts 159°
2026-04-22 00:16 39.22185 -106.86702 7760 ft 13 kts 158°
2026-04-22 00:16 39.22117 -106.86670 7765 ft 11 kts 161°
2026-04-22 00:17 39.22022 -106.86625 7767 ft 17 kts 160°
2026-04-22 00:17 39.21916 -106.86574 7786 ft 16 kts 160°
2026-04-22 00:17 39.21798 -106.86519 7794 ft 19 kts 159°
2026-04-22 00:17 39.21686 -106.86465 7804 ft 16 kts 159°
2026-04-22 00:18 39.21587 -106.86417 7812 ft 15 kts 160°
2026-04-22 00:18 39.21473 -106.86363 7819 ft 19 kts 157°
2026-04-22 00:18 39.21367 -106.86313 7828 ft 15 kts 161°
2026-04-22 00:18 39.21259 -106.86261 7828 ft 15 kts 159°
2026-04-22 00:19 39.21180 -106.86292 7837 ft 11 kts 244°
2026-04-22 00:19 39.21187 -106.86347 7834 ft 5 kts 338°
2026-04-22 00:19 39.21190 -106.86348 7831 ft 0 kts 341°
2026-04-22 00:21 39.21203 -106.86354 7833 ft 12 kts 334°
2026-04-22 00:21 39.21421 -106.86459 7822 ft 57 kts 341°
2026-04-22 00:21 39.21939 -106.86702 7784 ft 98 kts 340°
2026-04-22 00:22 39.22648 -106.86941 7918 ft 112 kts 357°
2026-04-22 00:22 39.23442 -106.86888 8229 ft 116 kts
2026-04-22 00:22 39.24269 -106.86839 8731 ft 124 kts 359°
2026-04-22 00:22 39.25160 -106.86857 9013 ft 130 kts 342°
2026-04-22 00:23 39.25974 -106.87348 9266 ft 129 kts 319°